Regional Weather Roundup
Issued by NWS Charleston, SC

Current Version | Previous Version | Text Only | Print | Product List | Glossary Off
Versions: 1 2 3 4 5 6 7 8 9 10 11 12 13 14 15 16 17 18 19 20 21 22 23 24 25 26 27 28 29 30 31 32 33 34 35 36 37 38 39 40 41 42 43 44 45 46 47 48 49 50

000
ASUS42 KCHS 302327
RWRCHS

REGIONAL WEATHER ROUNDUP
NATIONAL WEATHER SERVICE CHARLESTON SC
700 PM EDT TUE JUN 30 2015

NOTE: "FAIR" INDICATES FEW OR NO CLOUDS BELOW 12,000 FEET WITH NO
SIGNIFICANT WEATHER AND/OR OBSTRUCTIONS TO VISIBILITY.

NOT ALL STATIONS ARE QUALITY CONTROLLED BY THE NATIONAL
WEATHER SERVICE. USE DATA WITH CAUTION...ESPECIALLY
DEWPOINT OBSERVATIONS.

SCZ027-030-031-034>040-042>050-010000-
...SOUTHEAST SOUTH CAROLINA...

CITY           SKY/WX    TMP DP  RH WIND       PRES   REMARKS
N CHARLESTON   CLOUDY    83  73  72 SW13G22   29.98R THUNDER
WATERFRONT PAR   N/A     83  75  76 SW12      29.94F HX  90
MOUNT PLEASANT FAIR      82  73  74 S12G17    29.98R
JOHNS ISLAND   MOCLDY    82  77  83 S13G18    29.98S HX  91
PINOPOLIS      NOT AVBL
MONCKS CORNER  CLOUDY    73  68  83 CALM      30.00R
SUMMERVILLE    CLOUDY    70  70 100 CALM      30.00F
BEAUFORT MCAS  CLOUDY    76  69  79 NW6       29.98S
BEAUFORT ARPT  FAIR      79  70  73 NW7       29.97F
HILTON HEAD IS PTSUNNY   81  66  61 W9        29.99S
WALTERBORO     CLOUDY    70  70 100 NE3       30.01F
ALLENDALE      FAIR      72  72 100 S5        29.93F FOG

...SOUTHERN MIDLANDS AND PEE DEE...

CITY           SKY/WX    TMP DP  RH WIND       PRES   REMARKS
GEORGETOWN     NOT AVBL
KINGSTREE      NOT AVBL
ORANGEBURG     LGT RAIN  71  68  90 S5        29.96F
BARNWELL       FAIR      73  72  94 S7        29.95F
AIKEN          NOT AVBL
MANNING        RAIN      70  70 100 S3        29.99R
COLUMBIA       CLOUDY    73  68  84 S5        29.92F
SUMTER         CLOUDY    72  70  94 S8        29.92F
FLORENCE       TSTM      72  70  93 SW7       29.96R FOG
MYRTLE BEACH   SUNNY     84  72  65 S20G29    29.95F
N MYRTLE BEACH SUNNY     83  73  72 SW21G31   29.94F

$$

GAZ063-065-086>088-099>101-113>116-118-119-134>141-150-010000-
...SOUTHEAST GEORGIA...

CITY           SKY/WX    TMP DP  RH WIND       PRES   REMARKS
SAVANNAH ARPT  CLOUDY    77  66  68 W6        29.98F
HUNTER AAF     CLOUDY    78  68  69 W7        29.96F
FORT STEWART   CLOUDY    76  68  77 SW3       29.97F
STATESBORO     CLOUDY    72  72 100 SW5       29.98S
SYLVANIA       CLOUDY    73  72  98 CALM      29.98F
CLAXTON        FAIR      72  72 100 CALM      29.98F

...CSRA...CENTRAL AND FAR SOUTHEAST GEORGIA...

CITY           SKY/WX    TMP DP  RH WIND       PRES   REMARKS
THOMSON        CLOUDY    77  74  90 CALM      30.01R
AUGUSTA-BUSH   CLOUDY    75  70  84 S6        29.95F
AUGUSTA-DANIEL CLOUDY    76  69  79 S7        29.97F
SWAINSBORO     FAIR     N/A N/A N/A SW6       29.99S
VIDALIA        HVY RAIN  73  70  88 SW8       30.00R
EASTMAN        FAIR      74  74 100 S6        30.01R
HAZLEHURST     LGT RAIN  75  75 100 CALM      29.99S
ALMA           PTSUNNY   76  70  82 S10       30.00F
WAYCROSS       PTSUNNY   78  74  89 SW8       30.02F
JESUP          FAIR      81  73  78 SW6       30.01S
BAXLEY         LGT RAIN  75  72  88 CALM      30.00S
BRUNSWICK      CLOUDY    77  72  83 W8        30.03R
SAINT SIMONS   CLOUDY    75  69  81 SW10      30.01F

$$

SCZ027-028-034-036>038-045-046-048>050-GAZ119-141-010000-
...LAKE AND SUPPLEMENTAL COASTAL OBSERVATIONS...

STATION/POSITION TIME  TEMP    WIND        PRES    WAVE   SWELL
                       AIR SEA DIR/SP/G            HT/PER HT/PER/DIR
                 (UTC) (F)     (DEG/KT/KT) (MB)    (FT/S) (FT/S/D)
UPR LAKE MARION  NOT AVBL
WINYAH BAY       2200   85     200/ 16     1013.0
LAKE MURRAY      2200   75     170/  9/ 13 1013.2F
ACE BASIN NERRS  2200   83     180/  2     1015.0S
FORT PULASKI     2300   79 84  290/ 11/ 13 1015.6F
SAPELO ISLAND    2300   77     230/  6     1016.0F

$$

ANZ835-935-AMZ111-154-330-350-352-354-370-450-454-472-010000-
...C-MAN AND BUOY OBSERVATIONS...

STATION/POSITION TIME  TEMP    WIND        PRES    WAVE   SWELL
                       AIR SEA DIR/SP/G            HT/PER HT/PER/DIR
                 (UTC) (F)     (DEG/KT/KT) (MB)    (FT/S) (FT/S/D)
BUOY 41004       2250   83 83  200/ 17/ 21 1014.7F   4/ 4   2/ 7
BUOY 41008       2250   77 79  260/ 14/ 16 1016.0F   3/ 4   2/120/ 8
FOLLY BEACH CMAN 2300   81     200/ 21/ 24 1015.2R
CAPERS NEARSHORE 2208   83     210/ 19/ 27 1014.9F
FRIPP NEARSHORE  NOT AVBL


STATION/POSITION TIME  TEMP    WIND        PRES    WAVE   SWELL
                       AIR SEA DIR/SP/G            HT/PER HT/PER/DIR
                 (UTC) (F)     (DEG/KT/KT) (MB)    (FT/S) (FT/S/D)
5E ST. MARYS GA  2221      78                N/A     2/ 3
FRYING PAN BUOY  2250   83 80  210/ 19/ 21 1015.2R   4/ 4   2/130/ 7
BUOY 41025       2250   82 82  200/ 19/ 23 1013.1F   4/ 8   2/110/ 8
CAPE LOOKOUT NC  2300   81     210/ 13/ 17 1013.9R
BUOY 41002       2250   81 80  230/ 14/ 16 1017.3R   5/ 6   3/180/ 7
BUOY 41010       2220   83 84  240/ 10/ 10 1018.9F
ST AUGUSTINE FL  2300   76 74  150/  6/  6 1018.0F


$$



USA.gov is the U.S. government's official web portal to all federal, state and local government web resources and services.